Location: Chantarel
(45.1638°N, 1.7873°E)
Time: 13:54:24
(UTC+00:00)

SAR-Lupe-1 - Pass Details

Date: 03 March 2021
Orbit: 482 x 483 km, 98.2° (Epoch: 30 March)

Event Time Altitude Azimuth Distance (km) Brightness Sun altitude
Rises 18:25:12 0° 19° (NNE) 2,558 7.5 -8.2°
Reaches altitude 10° 18:27:21 10° 27° (NNE) 1,672 6.5 -8.6°
Maximum altitude 18:30:48 43° 100° (E) 691 4.4 -9.2°
Drops below altitude 10° 18:34:12 10° 173° (S) 1,658 6.7 -9.8°
Sets 18:36:19 0° 180° (S) 2,533 7.7 -10.2°
